Nur fliegen ist schöner ....

Willkommen beim Flugservice Bautzen GmbH

Wir sind eine nach europäischen Richtlinien zugelassene Flugschule und lizenziertes Luftfahrtunternehmen. Bei uns können sie nicht nur Rundflüge über die Oberlausitz oder Sachsen buchen, sondern in unserer Flugschule selber das Fliegen erlernen. Erfahrene Fluglehrer stehen Ihnen dabei zur Seite.

Wir bieten Ihnen außerdem spezielle Flüge zur Vermessung oder Fotoflüge für Luftbildaufnahmen an. In Zusammenarbeit mit dem Fallschirmsportclub Dresden und dem Cottbuser Fallschirmsportclub setzen wir am Flugplatz Bautzen und Neuhausen Fallschirmspringer ab.
Schauen Sie sich in Ruhe bei uns um und wenn Sie Fragen haben oder weitere Informationen benötigen, scheuen Sie sich nicht Kontakt mit uns aufzunehmen.

Gutscheine für Rundflüge und Tandemsprünge können Sie ganz leicht auch online in unserem Shop erwerben.

Terminkalender

Letzter Monat September 2022 Nächster Monat
Mo Di Mi Do Fr Sa So
week 35 1 2 3 4
week 36 5 6 7 8 9 10 11
week 37 12 13 14 15 16 17 18
week 38 19 20 21 22 23 24 25
week 39 26 27 28 29 30

Flugwetterinfo

[Quelle: ADDS]
METAR
EDDC 131020Z AUTO 20008KT 170V230 CAVOK 19/14 Q1010 NOSIG =
EDDC 130500Z 1306/1406 18007KT CAVOK BECMG 1309/1312 26009KT BECMG 1315/1318 23004KT
TAF
EDDC 242300Z 2500/2524 15005KT CAVOK BECMG 2505/2508 21004KT PROB30 TEMPO 2513/2518 4500 TSRA BKN020CB BECMG 2521/2524 3500 -RA BKN005 OVC010 =
SR / SS: 04:52 / 16:54 UTC (EDAB Flugplatz Bautzen 2022-09-25)

Öffnungszeiten

des Flugplatzes Bautzen erfahren Sie hier:

flugplatz bautzen logo
Flugservice Bautzen GmbH, Kornmarkt 34, 02625 Bautzen  Telefon: +49 (3591) 211105, Telefax: +49 (3591) 274512, E-Mail:  flugservice(at)fsbautzen.de
Wir benutzen Cookies
Wir nutzen nur Cookies auf unserer Website, die essenziell für den Betrieb der Seite sind. Sie können selbst entscheiden, ob Sie die Cookies zulassen möchten. Bitte beachten Sie, dass bei einer Ablehnung womöglich nicht mehr alle Funktionalitäten der Seite zur Verfügung stehen.